Location: Darmstadt
(49.8706°N, 8.6494°E)
Time: 07:27:30
(UTC+01:00)

ERS-2 - Pass Details

Date: 31 October 2020
Orbit: 493 x 497 km, 98.6° (Epoch: 03 December)

Event Time Altitude Azimuth Distance (km) Brightness Sun altitude
Rises 19:02:19 0° 5° (N) 2,590 5.7 -19.5°
Reaches altitude 10° 19:04:38 10° 352° (N) 1,703 4.9 -19.9°
Maximum altitude 19:07:40 25° 296° (WNW) 1,036 4.4 -20.4°
Drops below altitude 10° 19:10:41 10° 240° (WSW) 1,693 5.6 -20.9°
Sets 19:12:59 0° 226° (SW) 2,571 6.4 -21.3°
